Location: Newark
(55.8333°N, 13.3000°E)
Time: 06:05:59
(UTC+00:00)

ISS - Visible Passes

Search period start: 20 November 2019 00:00
Search period end: 30 November 2019 00:00
Orbit: 412 x 421 km, 51.6° (Epoch: 20 November)

Date Brightness Start Highest point End Pass type
(mag) Time Alt. Az. Time Alt. Az. Time Alt. Az.
24 Nov -1.2 17:29:26 10° SSW 17:30:18 14° S 17:30:18 14° S visible
25 Nov -1.5 16:41:49 10° S 16:43:36 14° SSE 16:43:54 14° SE visible
25 Nov -0.6 18:16:37 10° SW 18:16:48 11° SW 18:16:48 11° SW visible
26 Nov -1.9 17:28:26 10° SW 17:30:21 23° SSW 17:30:21 23° SSW visible
27 Nov -2.1 16:40:22 10° SSW 16:43:04 22° SSE 16:43:51 20° SE visible
27 Nov -0.7 18:16:07 10° WSW 18:16:45 14° WSW 18:16:45 14° WSW visible
28 Nov -1.6 15:52:28 10° SSW 15:54:46 17° SSE 15:57:06 10° ESE visible
28 Nov -2.3 17:27:48 10° WSW 17:30:13 32° SSW 17:30:13 32° SSW visible
29 Nov -2.5 16:39:31 10° SW 16:42:34 32° SSE 16:43:39 25° SE visible
29 Nov -0.8 18:15:44 10° WSW 18:16:32 16° WSW 18:16:32 16° WSW visible
